Location: Bazugues
(43.4465°N, 0.3432°E)
Time: 15:27:42
(UTC+00:00)

YAOGAN 1 - Visible Passes

Search period start: 11 April 2026 00:00
Search period end: 21 April 2026 00:00
Orbit: 604 x 606 km, 97.8° (Epoch: 11 April)

Date Brightness Start Highest point End Pass type
(mag) Time Alt. Az. Time Alt. Az. Time Alt. Az.
12 Apr 4.6 19:04:00 10° SSW 19:07:47 31° W 19:11:35 10° NNW visible
13 Apr 5.2 19:17:10 10° SSW 19:20:34 23° W 19:23:59 10° NW visible
14 Apr 5.4 19:30:34 10° SW 19:33:22 17° W 19:36:12 10° NW visible
15 Apr 5.7 19:44:22 10° WSW 19:46:12 12° W 19:48:03 10° WNW visible
